Tracking 22455 objects as of 8-Mar-2021
HD Live streaming from Space Station
objects crossing your sky now

THORAD AGENA D DEB

Track THORAD AGENA D DEB now!
10-day predictions


NORAD ID: 4209
Int'l Code: 1969-082BY
Perigee: 855.7 km
Apogee: 914.9 km
Inclination: 70.0 °
Period: 102.5 minutes
Semi major axis: 7256 km
RCS: 0.4396 m2 (medium)
Launch date: September 30, 1969
Source: United States (US)
Launch site: AIR FORCE WESTERN TEST RANGE (AFWTR)

Note: This is SATELLITE DEBRIS
aabbcc
Your satellite tracking list
Your tracking list is empty




NASA's NSSDC Master Catalog

Two Line Element Set (TLE):
1 04209U 69082BY  21066.74065391  .00000096  00000-0  92956-4 0  9990
2 04209  70.0319  64.5184 0040847 350.4238   9.6089 14.04528633633272
Source of the keplerian elements: AFSPC